Location: *
(45.5667°S, 177.5167°W)
Time: 04:08:02
(UTC+00:00)

H-2A R/B - Pass Details

Date: 29 May 2022
Orbit: 734 x 835 km, 98.2° (Epoch: 24 June)

Event Time Altitude Azimuth Distance (km) Brightness Sun altitude
Exits shadow 07:36:02 13° 200° (SSW) 2,104 4.5 -34.1°
Maximum altitude 07:39:04 21° 242° (WSW) 1,638 4.2 -34.6°
Drops below altitude 10° 07:42:43 10° 289° (WNW) 2,256 5.1 -35.2°
Sets 07:45:28 0° 305° (NW) 3,173 5.8 -35.7°
